Location: Newark
(15.4608°S, 41.1635°W)
Time: 13:03:04
(UTC+00:00)

Envisat - Pass Details

Date: 25 June 2021
Orbit: 764 x 766 km, 98.1° (Epoch: 25 July)

Event Time Altitude Azimuth Distance (km) Brightness Sun altitude
Rises 07:56:00 0° 0° (N) 3,209 6.5 -17.6°
Reaches altitude 10° 07:58:21 10° 355° (N) 2,289 5.6 -17.1°
Maximum altitude 08:03:12 48° 281° (W) 995 3.2 -16.0°
Enters shadow 08:07:17 15° 210° (SSW) 2,002 4.7 -15.1°
